TimeCDT,TemperatureF,Dew PointF,Humidity,Sea Level PressureIn,VisibilityMPH,Wind Direction,Wind SpeedMPH,Gust SpeedMPH,PrecipitationIn,Events,Conditions,WindDirDegrees,DateUTC
12:58 AM,78.1,62.6,59,29.87,10.0,SSW,3.5,-,N/A,,Clear,210,2013-09-14 05:58:00
1:58 AM,77.5,63.9,63,29.87,10.0,SW,2.3,-,N/A,,Clear,230,2013-09-14 06:58:00
2:58 AM,72.5,64.4,76,29.88,10.0,WNW,2.3,-,N/A,,Clear,290,2013-09-14 07:58:00
3:58 AM,72.3,64.2,76,29.86,10.0,West,2.3,-,N/A,,Clear,260,2013-09-14 08:58:00
4:58 AM,74.8,69.3,83,29.86,10.0,WNW,2.3,-,N/A,,Partly Cloudy,290,2013-09-14 09:58:00
5:58 AM,70.0,64.4,82,29.88,10.0,NNW,3.5,-,N/A,,Clear,340,2013-09-14 10:58:00
6:58 AM,69.8,64.2,82,29.88,10.0,NNW,3.5,-,N/A,,Clear,330,2013-09-14 11:58:00
7:58 AM,69.3,64.9,86,29.90,10.0,NW,4.6,-,N/A,,Clear,320,2013-09-14 12:58:00
8:58 AM,73.9,65.7,75,29.91,10.0,North,3.5,-,N/A,,Clear,350,2013-09-14 13:58:00
9:58 AM,80.2,68.0,66,29.93,10.0,Variable,3.5,-,N/A,,Clear,0,2013-09-14 14:58:00
10:58 AM,84.2,67.5,57,29.94,10.0,East,6.9,-,N/A,,Clear,90,2013-09-14 15:58:00
11:58 AM,86.4,65.8,50,29.93,10.0,Variable,5.8,-,N/A,,Partly Cloudy,0,2013-09-14 16:58:00
12:58 PM,90.1,63.1,40,29.91,10.0,Variable,5.8,-,N/A,,Clear,0,2013-09-14 17:58:00
1:58 PM,92.1,62.4,37,29.88,10.0,Variable,6.9,-,N/A,,Clear,0,2013-09-14 18:58:00
2:58 PM,93.7,61.2,34,29.86,10.0,SE,13.8,20.7,N/A,,Clear,140,2013-09-14 19:58:00
3:38 PM,95.0,60.8,32,29.87,10.0,SSE,12.7,23.0,N/A,,Clear,160,2013-09-14 20:38:00
3:58 PM,93.6,60.6,33,29.84,10.0,SE,13.8,-,N/A,,Clear,140,2013-09-14 20:58:00
4:58 PM,94.6,61.7,33,29.82,10.0,SE,18.4,-,N/A,,Clear,140,2013-09-14 21:58:00
5:58 PM,92.5,61.3,35,29.84,10.0,SE,11.5,-,N/A,,Clear,140,2013-09-14 22:58:00
6:58 PM,90.3,63.3,40,29.84,10.0,SE,10.4,-,N/A,,Clear,130,2013-09-14 23:58:00
7:58 PM,86.4,64.6,48,29.86,10.0,SE,8.1,-,N/A,,Clear,130,2013-09-15 00:58:00
8:58 PM,78.1,70.5,77,29.92,4.0,East,18.4,26.5,0.00,Rain,Light Rain,90,2013-09-15 01:58:00
9:03 PM,75.2,71.6,89,29.94,1.8,East,15.0,24.2,N/A,Rain,Heavy Rain,90,2013-09-15 02:03:00
9:08 PM,75.2,71.6,89,29.94,2.0,East,13.8,-,N/A,Rain,Light Rain,100,2013-09-15 02:08:00
9:13 PM,75.2,71.6,89,29.94,5.0,ESE,13.8,-,N/A,Rain,Light Rain,110,2013-09-15 02:13:00
9:18 PM,75.2,71.6,89,29.93,7.0,ESE,13.8,-,N/A,Rain,Light Rain,120,2013-09-15 02:18:00
9:23 PM,75.2,71.6,89,29.93,7.0,SE,12.7,-,N/A,Rain,Light Rain,130,2013-09-15 02:23:00
9:28 PM,75.2,71.6,89,29.93,8.0,SE,10.4,-,N/A,Rain,Light Rain,140,2013-09-15 02:28:00
9:38 PM,75.2,71.6,89,29.94,10.0,ESE,9.2,-,N/A,,Scattered Clouds,120,2013-09-15 02:38:00
9:58 PM,75.2,71.2,87,29.92,10.0,SE,4.6,-,0.11,,Partly Cloudy,130,2013-09-15 02:58:00
10:58 PM,75.4,71.4,87,29.93,10.0,ENE,4.6,-,0.00,,Partly Cloudy,70,2013-09-15 03:58:00
11:58 PM,75.0,71.1,87,29.93,10.0,Calm,Calm,-,N/A,,Clear,0,2013-09-15 04:58:00